Location: Unspecified
(48.5670°N, 0.0000°E)
Time: 22:23:44
(UTC+00:00)

Transit 4A - Pass Details

Date: 25 August 2019
Orbit: 865 x 980 km, 66.8° (Epoch: 15 September)

Event Time Altitude Azimuth Distance (km) Brightness Sun altitude
Rises 20:07:26 0° 270° (W) 3,682 12.1 -11.5°
Reaches altitude 10° 20:10:42 10° 286° (WNW) 2,733 11.7 -12.0°
Maximum altitude 20:15:29 21° 334° (NNW) 2,018 10.5 -12.7°
Drops below altitude 10° 20:20:13 10° 23° (NNE) 2,706 10.5 -13.3°
Sets 20:23:27 0° 39° (NE) 3,636 11.0 -13.8°
